Location: Ritzville
(47.1276°N, 118.3800°W)
Time: 02:23:21
(UTC+00:00)

Envisat - Visible Passes

Search period start: 19 August 2022 00:00
Search period end: 29 August 2022 00:00
Orbit: 763 x 765 km, 98.2° (Epoch: 18 August)

Date Brightness Start Highest point End Pass type
(mag) Time Alt. Az. Time Alt. Az. Time Alt. Az.
19 Aug 4.0 11:59:54 10° NNE 12:04:50 48° E 12:09:44 10° S visible
20 Aug 5.2 11:23:34 10° NE 11:27:38 23° E 11:31:39 10° SE visible
21 Aug 5.9 10:48:54 10° ENE 10:50:12 11° E 10:51:30 10° E visible
21 Aug 3.2 12:24:55 10° NNE 12:30:02 81° ESE 12:35:07 10° SSW visible
22 Aug 4.4 11:48:13 10° NNE 11:52:58 38° E 11:57:41 10° SSE visible
23 Aug 5.5 11:12:08 10° NE 11:15:41 19° E 11:19:13 10° SE visible
24 Aug 3.5 12:13:07 10° NNE 12:18:12 64° ESE 12:23:13 10° S visible
25 Aug 4.8 11:36:34 10° NNE 11:41:04 31° E 11:45:31 10° SSE visible
26 Aug 5.7 11:00:51 10° NE 11:03:43 15° E 11:06:34 10° ESE visible
27 Aug 3.9 12:01:22 10° NNE 12:06:20 51° E 12:11:16 10° S visible
28 Aug 5.2 11:25:00 10° NE 11:29:08 25° E 11:33:16 10° SSE visible
